User: anonymous   Login
Location: Elstree
(51.6403°N, 0.2969°W)
Time: 06:02:32
(UTC+00:00)
Language:

Okean 1-7 - Orbit

View from above orbital plane
View from above orbital plane
View from above satellite
View from above satellite

Ground track
Ground track

The orbit data is extracted from the following two-line orbital elements,

1 23317U 94066A   21216.52854292  .00000248  00000-0  24146-4 0  9995
2 23317  82.5393 138.3705 0021362  92.6919 267.6744 14.87949950450321
Epoch (UTC): 04 August 2021 12:41:06
Eccentricity: 0.0021362
inclination: 82.5393°
perigee height: 589 km
apogee height: 619 km
right ascension of ascending node: 138.3705°
argument of perigee: 92.6919°
revolutions per day: 14.87949950
mean anomaly at epoch: 267.6744°
orbit number at epoch: 45032

The dashed part of the orbit path shows where the satellite is in the earth's shadow,  

DLR